{"data":{"norad_id":52845,"intl_designator":"2022-062R","name":"STARLINK-4168","alt_names":[],"object_type":"PAYLOAD","status":"ACTIVE","operator":null,"country":"US","launch_date":"2022-06-17","launch_site_code":"AFETR","launch_vehicle":null,"mission":null,"orbit_class":"UNKNOWN","rcs_meters":null,"size_class":null,"mass_kg":null,"dimensions":null,"purposes":["comms"],"wikipedia_slug":null,"has_3d_model":false,"image_url":null,"decayed_at":null,"tle_current":{"epoch":"2026-09-20T04:14:51.953280Z","epoch_age_seconds":94293,"freshness":"FRESH","line1":"1 52845U 22062R   26263.17699020 -.00000090  00000+0  88673-5 0  9995","line2":"2 52845  53.1599 230.3327 0001306  84.2274 275.8877 15.31700574235293","mean_motion":15.31700574,"eccentricity":0.0001306,"inclination_deg":53.1599,"raan_deg":230.3327,"arg_perigee_deg":84.2274,"mean_anomaly_deg":275.8877,"bstar":8.8673e-6,"rev_number":23529,"period_min":94.013152729941,"perigee_km":469.84382104994,"apogee_km":471.63274727416,"semimajor_km":6848.875284162,"source":"CELESTRAK","updated_at":"2026-09-20T09:00:40.113843Z"}}}